Location: Bastelaar
(51.0950°N, 3.8602°E)
Time: 05:42:02
(UTC+00:00)

SJ 16-02 - Pass Details

Date: 18 November 2025
Orbit: 585 x 594 km, 75.0° (Epoch: 10 December)

Event Time Altitude Azimuth Distance (km) Brightness Sun altitude
Rises 18:17:05 0° 204° (SSW) 2,825 5.1 -22.3°
Reaches altitude 10° 18:19:18 10° 205° (SSW) 1,927 4.2 -22.7°
Maximum altitude 18:23:36 80° 292° (WNW) 611 1.3 -23.3°
Enters shadow 18:24:17 62° 4° (N) 676 1.4 -23.5°
